X-CubeSat
1 42707U 98067LQ 18228.90924542 .00043300 00000-0 28514-3 0 9999
2 42707 051.6320 042.8717 0000715 083.2112 276.8969 15.75204834071484
qbee
1 42708U 98067LR 18228.89388553 .00038638 00000-0 26740-3 0 9991
2 42708 051.6364 044.3671 0000747 083.9641 276.1444 15.74107597071420
ZA-AeroSat
1 42713U 98067LU 18228.90082819 .00024551 00000-0 20442-3 0 9997
2 42713 051.6348 049.6797 0001825 053.3016 306.8149 15.69965259071064
LINK
1 42714U 98067LV 18228.85477297 .00148322 19185-4 47794-3 0 9990
2 42714 51.6216 30.9881 0003314 305.4222 54.6474 15.90627269 71419
UPSat
1 42716U 98067LX 18228.88949978 .00070463 00000-0 34564-3 0 9998
2 42716 051.6311 036.7144 0000963 160.9080 199.1958 15.81573574071361
SpaceCube
1 42717U 98067LY 18228.67119994 .00038360 00000-0 26779-3 0 9992
2 42717 51.6331 45.8368 0002324 127.8888 232.2322 15.73907080 70462
Hoopoe
1 42718U 98067LZ 18228.64348177 .00055817 00000-0 32665-3 0 9994
2 42718 51.6302 41.8774 0001384 116.5870 243.5272 15.77778878 70519
Challenger
1 42721U 98067MA 18224.59980250 .12090849 12543-4 42456-3 0 9997
2 42721 051.6121 042.1184 0010981 284.9336 075.0476 16.43490172069841
NJUST-1
1 42722U 98067MB 18228.87317043 .00023224 00000-0 20228-3 0 9991
2 42722 51.6357 51.7765 0005039 103.5342 256.6216 15.68895466 70106
UNSW-EC0
1 42723U 98067MC 18228.86001693 .00057532 00000-0 31732-3 0 9993
2 42723 51.6394 40.3942 0002702 115.3848 244.7433 15.79085412 70232
DUTHsat
1 42724U 98067MD 18228.90811769 .00589663 18324-3 72876-3 0 9992
2 42724 051.6244 023.8268 0008889 305.9388 054.0799 16.07163646070394
LO-90
1 42725U 98067ME 18228.86969524 .00030863 00000-0 23393-3 0 9993
2 42725 51.6362 47.9837 0003761 108.1950 251.9458 15.72079187 70057
nSIGHT1
1 42726U 98067MF 18228.90225375 .00012134 00000-0 13998-3 0 9999
2 42726 051.6388 061.0667 0005603 102.2299 257.9322 15.62371591069891
SNUSAT 1B
1 42727U 98067MG 18228.88257453 .00031259 00000-0 23707-3 0 9997
2 42727 051.6333 048.0024 0004950 070.6196 289.5337 15.72052662070022
QBITO
1 42728U 98067MH 18228.49178449 .00044020 00000-0 30114-3 0 9992
2 42728 51.6370 47.0106 0001725 114.9363 245.1816 15.74315739 69846
Aalto-2
1 42729U 98067MJ 18228.90281360 .00042716 00000-0 28657-3 0 9995
2 42729 051.6330 044.4198 0001529 120.0440 240.0711 15.74781830069927
SUSat
1 42730U 98067MK 18228.89894597 .00034450 00000-0 25341-3 0 9990
2 42730 051.6353 046.6557 0002064 112.0796 248.0422 15.72734429069890
i-INSPIRE II
1 42731U 98067ML 18228.57401883 .00071538 00000-0 37804-3 0 9993
2 42731 51.6356 40.6369 0002786 39.5475 320.5729 15.79942499 69988
PolyITAN-2-SAU
1 42732U 98067MM 18228.85993735 .00041757 00000-0 27846-3 0 9992
2 42732 51.6345 44.1009 0004068 56.7729 303.3659 15.74923769 69968
ExAlta-1
1 42734U 98067MP 18228.90036645 .00072377 00000-0 36209-3 0 9993
2 42734 051.6276 038.2290 0002915 090.4664 269.6672 15.81132933069996
Aoxiang-1
1 42735U 98067MQ 18228.88866073 .00023324 00000-0 19988-3 0 9990
2 42735 051.6348 051.0993 0005346 101.3955 258.7643 15.69287712071246
BeEagleSat
1 42736U 98067MR 18228.88111725 .00028667 00000-0 22611-3 0 9990
2 42736 51.6344 48.7790 0004845 102.4666 257.6874 15.71166061 69961
CAS-4B
1 42759U 17034B 18228.88253690 .00000100 00000-0 19713-4 0 9990
2 42759 43.0196 110.0455 0008317 128.2506 289.8368 15.09341038 64627
CAS-4A
1 42761U 17034D 18228.86056278 .00000150 00000-0 22777-4 0 9993
2 42761 43.0199 109.9002 0008671 130.1668 284.5031 15.09417490 64616
UCLSat
1 42765U 17036A 18228.89486881 .00000990 00000-0 46381-4 0 9998
2 42765 097.3960 287.7536 0010732 216.9626 143.0872 15.21981302064538
NIUSat
1 42766U 17036B 18228.94396016 .00000796 00000-0 39462-4 0 9991
2 42766 097.3960 286.9444 0015191 206.0589 153.9884 15.20499694063764
LituanicaSAT 2
1 42768U 17036D 18228.70651267 .00001616 00000-0 74582-4 0 9993
2 42768 97.3979 287.1426 0014868 208.6178 151.4243 15.21578951 63768
Aalto 1
1 42775U 17036L 18228.89532727 .00000635 00000-0 31857-4 0 9998
2 42775 097.3952 287.1346 0013421 205.8738 154.1828 15.20836465063724
URSA MAIOR
1 42776U 17036M 18228.94439078 .00000722 00000-0 35670-4 0 9994
2 42776 097.3959 287.2468 0013272 205.8114 154.2461 15.20923653063731
Max Valier Sat
1 42778U 17036P 18228.69120978 .00000781 00000-0 37827-4 0 9995
2 42778 097.3986 287.3873 0011718 210.8982 149.1566 15.21417370063707
Pegasus
1 42784U 17036V 18228.80849527 .00000957 00000-0 45185-4 0 9994
2 42784 097.3963 287.5795 0011233 217.8131 142.2317 15.21785397063737
NUDATSat
1 42787U 17036Y 18228.89994454 .00001374 00000-0 62393-4 0 9990
2 42787 097.3971 287.9317 0010828 216.3522 143.6980 15.22415314063607
SUCHAI 1
1 42788U 17036Z 18228.82036868 .00001114 00000-0 51696-4 0 9996
2 42788 97.3965 287.7160 0010870 217.1245 142.9241 15.22074578 63811
SKCUBE
1 42789U 17036AA 18228.88721790 .00001042 00000-0 48599-4 0 9996
2 42789 097.3962 287.7708 0010718 216.8345 143.2156 15.22028283063748
VZLUSAT 1
1 42790U 17036AB 18228.88849692 .00001377 00000-0 62536-4 0 9998
2 42790 097.3968 287.9276 0010368 216.4947 143.5584 15.22431823063750
VENTA 1
1 42791U 17036AC 18228.93260258 .00000916 00000-0 43024-4 0 9999
2 42791 097.3961 287.8588 0010334 217.2072 142.8449 15.22070859063749
Robusta 1B
1 42792U 17036AD 18228.91582161 .00001108 00000-0 51277-4 0 9991
2 42792 097.3962 287.8736 0010260 217.5990 142.4529 15.22177865063768
D-SAT
1 42794U 17036AF 18228.91791284 .00000228 00000-0 25082-4 0 9998
2 42794 097.5862 281.2632 0128543 080.3331 281.2381 14.90908750062770
BIRD-J
1 42820U 98067MU 18228.92328044 .00028365 00000-0 23313-3 0 9998
2 42820 051.6346 051.3236 0002211 040.0373 320.0787 15.70191063063410
BIRD-G
1 42821U 98067MV 18228.87118664 .00026636 00000-0 22551-3 0 9990
2 42821 051.6346 052.4807 0002276 043.3231 316.7945 15.69509350063370
BIRD-M
1 42822U 98067MW 18228.90529105 .00027519 00000-0 22961-3 0 9997
2 42822 051.6349 051.9618 0002259 045.6624 314.4558 15.69844477063388
BIRD-B
1 42823U 98067MX 18228.89687286 .00026776 00000-0 22219-3 0 9991
2 42823 051.6354 051.9269 0004354 063.8875 296.2570 15.69986820063385
BIRD-N
1 42824U 98067MY 18228.93000194 .00027613 00000-0 23142-3 0 9991
2 42824 051.6357 052.1682 0004314 064.6028 295.5415 15.69727953063386
TechnoSat
1 42829U 17042E 18228.77017949 .00000023 00000-0 77365-5 0 9992
2 42829 97.5901 128.8232 0014393 4.6784 355.4566 14.90847326 59353
TOMSK-TPU 120
1 42910U 98067MZ 18228.91818103 .00018958 00000-0 18710-3 0 9999
2 42910 051.6347 058.0485 0005690 082.9845 277.1798 15.65939666056895
TANYUSHA 1
1 42911U 98067NA 18228.92086415 .00022424 00000-0 20909-3 0 9990
2 42911 051.6354 056.6054 0005131 078.5582 281.5990 15.67238550056898
TANYUSHA 2
1 42912U 98067NB 18228.88384340 .00021308 00000-0 20461-3 0 9997
2 42912 051.6375 057.8458 0004761 090.5501 269.6040 15.66543469056896
SFERA 2
1 42913U 98067NC 18228.90418470 .00062107 00000-0 36446-3 0 9995
2 42913 051.6359 045.8635 0002208 122.4972 237.6242 15.77672590057052
TNS 0-2
1 42914U 98067ND 18228.90721478 .00018760 00000-0 18670-3 0 9996
2 42914 051.6362 058.7756 0004828 084.8407 275.3140 15.65741678056852
QIKCOM-1
1 42983U 98067NF 18228.94719714 .00003114 00000-0 49762-4 0 9990
2 42983 051.6400 072.6215 0004735 068.8533 291.2965 15.56598846045683
AO-91
1 43017U 17073E 18228.59818160 .00000683 00000-0 58290-4 0 9997
2 43017 097.7071 157.2142 0261101 075.0473 287.9486 14.78133866040035
